Lapse_Rate
5.5 5.8 5.9 5.5 5.5 5.7 5.8 5.9 5.5 5.4 5.3 5.1 4.8 4.5 3.9 3.5 3.4 3.7 3.6 3.7 3.6 4.0 5.4 6.2 6.5 6.4 6.3 6.4 6.5 6.3 6.2 5.9 6.2 6.4 6.6 7.0 6.7 7.1 6.9 6.9 7.0 7.0 5.9 5.1 5.0
6.2 5.6 5.9 5.8 5.5 5.7 5.6 5.8 5.7 5.7 5.3 4.8 4.5 4.1 3.8 3.6 3.6 3.4 3.6 3.5 3.6 4.4 5.4 6.4 6.5 6.3 6.2 6.3 6.4 6.2 6.1 6.0 6.5 6.6 6.3 6.7 6.5 6.7 6.5 6.6 6.7 7.1 6.3 5.2 4.9
6.2 6.2 5.8 5.7 5.7 5.6 5.7 5.9 5.8 5.7 5.1 4.6 4.3 3.8 3.8 4.0 3.6 3.6 3.5 3.4 3.8 5.0 5.7 6.1 6.4 6.4 6.0 6.0 6.1 6.2 6.6 6.8 6.9 6.6 6.3 6.5 6.3 6.7 6.1 6.5 6.7 6.8 7.1 6.0 5.0
6.5 6.5 6.1 5.8 5.7 5.8 5.8 5.7 5.7 5.7 4.9 4.4 4.3 3.8 4.0 4.0 3.5 3.2 3.1 3.6 4.7 5.9 6.5 6.6 6.7 6.6 6.5 6.1 6.3 6.2 6.7 6.6 7.0 6.3 6.5 6.8 6.4 7.0 6.2 6.3 6.5 6.9 7.2 6.5 5.5
6.8 6.5 6.2 5.8 5.8 5.7 5.7 5.5 5.2 5.7 4.8 4.1 4.0 4.0 4.0 3.7 3.6 3.4 3.9 4.6 5.7 6.4 7.1 7.2 7.2 7.1 6.9 6.9 6.5 6.5 6.6 6.5 6.6 6.6 6.8 6.9 6.5 6.0 6.0 6.6 6.7 6.8 6.9 6.3 6.0
6.8 6.6 6.1 6.2 5.8 5.7 5.6 5.6 5.4 5.1 4.7 4.2 4.1 3.8 3.8 3.7 4.3 4.7 5.2 5.7 6.4 7.5 7.8 7.8 7.6 7.4 7.3 7.4 7.0 7.1 6.6 6.7 6.2 6.4 6.6 6.9 6.9 6.0 6.4 6.6 6.7 6.7 6.6 6.8 6.6
6.8 6.5 6.0 6.0 6.1 6.1 5.6 5.5 5.5 5.0 4.5 4.4 4.1 3.7 4.0 4.5 5.2 5.6 6.0 6.3 7.6 7.9 7.6 7.5 7.4 7.0 7.2 7.5 7.6 7.1 6.6 6.6 6.4 6.5 6.7 6.4 6.7 6.1 6.2 6.2 6.9 6.6 6.7 6.9 6.6
7.0 6.2 6.0 6.1 5.8 5.8 5.6 5.7 5.3 4.8 4.5 4.4 3.9 4.1 4.8 5.5 5.9 6.3 6.7 7.0 7.6 7.5 7.4 7.2 7.1 7.1 7.0 7.2 7.6 7.5 6.8 6.7 7.1 6.7 6.5 6.4 6.2 6.3 5.9 6.1 6.7 6.6 6.8 6.9 6.3
6.8 6.4 6.3 6.1 6.0 5.5 5.5 5.2 5.1 5.0 4.5 4.3 4.2 4.9 5.4 5.6 6.1 6.3 6.8 7.1 7.2 7.3 7.2 7.1 6.9 6.8 7.1 7.2 7.3 7.5 7.2 6.9 6.9 6.8 6.7 6.5 5.9 6.3 6.0 6.2 6.5 7.0 6.6 6.8 6.3
6.6 6.4 6.2 6.0 5.9 5.6 5.5 5.3 5.2 4.8 4.6 4.3 5.0 5.5 5.5 5.8 6.2 6.1 6.9 7.2 7.4 7.1 6.7 6.7 6.7 7.0 7.1 7.4 7.2 7.5 7.2 7.0 6.9 6.8 6.4 6.1 6.0 6.2 6.0 6.1 6.5 6.9 6.4 6.7 6.6
6.2 6.0 6.0 6.0 5.9 5.6 5.5 5.5 5.2 4.6 4.7 4.8 5.5 5.7 5.8 6.4 6.2 6.3 6.5 6.7 6.8 6.8 7.0 6.6 6.7 6.9 7.3 7.7 7.6 7.2 7.3 7.0 7.0 7.0 6.6 5.9 6.0 5.2 6.0 6.1 6.4 6.8 6.5 6.3 6.6
5.9 5.9 5.7 5.9 5.4 5.4 5.4 5.3 5.1 5.1 4.9 5.5 5.7 5.8 6.3 6.4 6.1 5.9 5.8 5.8 6.1 6.6 6.7 6.2 6.8 6.8 7.3 7.4 7.2 6.8 7.0 7.1 7.0 7.0 6.8 6.4 5.8 5.5 6.3 6.1 6.2 7.0 6.4 6.0 5.9
5.9 5.4 5.6 5.7 5.6 5.3 5.4 5.2 5.1 5.1 5.2 5.9 5.9 5.9 6.3 6.3 6.2 6.0 6.0 6.1 6.2 6.4 6.3 6.4 6.8 7.0 6.9 7.5 6.6 6.9 6.9 7.0 7.0 6.8 6.3 6.2 6.6 6.2 5.6 5.5 6.5 6.7 6.8 6.4 6.4
5.6 5.1 5.2 5.5 5.7 5.4 5.6 5.1 5.1 5.1 5.6 5.9 5.9 6.0 6.1 6.1 6.2 5.7 5.8 6.2 6.2 6.2 6.6 6.3 6.4 6.7 6.8 7.2 7.1 7.0 6.9 7.6 7.6 7.5 7.1 7.0 6.4 6.1 5.7 6.3 6.1 6.5 6.8 7.0 7.1
5.4 5.0 5.1 5.5 5.7 5.3 5.5 5.0 5.0 5.0 3.5 5.8 5.9 5.9 6.1 5.6 5.8 5.6 6.3 6.2 6.3 6.3 6.4 6.5 6.4 6.9 7.0 6.9 6.7 7.1 7.1 7.6 7.3 7.8 6.9 6.1 5.9 5.7 5.6 5.7 5.8 6.2 7.1 7.0 7.1
5.3 4.9 5.1 5.1 5.2 5.2 5.0 4.9 4.8 5.3 4.0 6.0 5.8 5.8 6.1 5.8 5.6 5.8 6.3 6.0 6.3 6.2 6.4 6.4 6.7 6.9 6.7 6.8 6.9 7.3 7.2 7.3 7.1 7.4 6.3 6.4 6.7 6.1 6.0 5.9 5.8 6.6 7.2 7.3 7.1
5.1 5.0 5.2 5.1 5.1 5.2 4.8 5.0 4.8 5.4 5.9 6.0 5.9 5.9 5.9 5.9 5.7 5.9 6.4 6.3 6.1 6.5 6.6 6.7 6.9 6.7 6.7 6.7 6.8 7.2 7.3 6.8 6.9 6.6 6.5 6.5 7.1 6.2 6.0 5.6 5.6 6.2 6.5 6.7 6.4
4.8 4.6 5.2 5.1 5.1 4.9 4.6 4.6 5.1 5.8 6.1 6.0 6.2 5.9 5.6 5.7 5.8 6.1 6.4 6.6 6.5 6.8 6.8 6.6 6.8 6.9 6.9 7.1 6.5 7.2 7.8 7.2 6.5 6.8 6.5 6.5 6.8 6.3 6.0 5.7 6.0 6.6 7.0 7.3 6.9
4.8 4.8 4.9 4.8 4.9 4.9 4.1 4.4 5.6 5.9 6.2 6.2 6.2 6.1 6.0 5.9 6.1 6.3 6.5 6.4 6.5 7.0 6.9 6.7 6.5 6.6 7.0 7.1 7.3 7.3 7.3 7.0 6.6 6.6 6.7 6.4 6.9 6.6 6.5 5.9 6.4 6.9 6.7 6.9 7.0
4.4 4.6 4.5 4.8 4.9 4.4 3.9 4.8 5.3 6.0 6.2 6.3 6.3 6.2 6.1 6.1 6.1 6.3 6.4 6.4 6.3 6.7 6.8 6.7 6.5 6.6 6.6 6.4 7.0 7.1 7.0 7.1 7.0 6.0 5.9 6.3 6.5 6.4 6.9 6.9 6.7 6.7 7.0 6.9 6.7
4.4 4.9 4.7 4.7 4.2 3.9 3.8 4.5 5.1 6.0 6.1 6.4 6.5 6.4 6.2 6.1 6.2 6.2 6.3 6.5 6.5 6.6 6.7 6.8 6.9 6.3 6.5 6.5 6.9 7.1 6.9 6.8 6.5 6.0 6.1 5.9 6.2 6.4 6.5 6.8 6.8 6.8 6.6 6.6 6.6
4.9 4.3 4.4 4.4 4.0 3.8 3.8 4.4 5.2 5.9 6.0 6.4 6.4 6.5 6.2 6.1 6.2 6.2 6.2 6.3 6.6 6.7 6.5 6.6 6.5 6.2 6.1 6.5 6.7 6.7 6.9 6.9 6.8 5.9 5.8 6.3 6.2 6.5 6.6 6.6 6.5 6.4 6.5 6.7 6.8
4.7 4.5 4.2 4.4 3.9 3.8 3.8 4.3 5.0 5.4 5.8 6.3 6.4 6.5 6.3 6.3 6.3 6.3 6.3 6.4 6.5 6.7 6.7 6.6 6.4 6.4 6.3 6.2 6.5 6.6 6.5 6.7 6.9 6.8 6.3 6.2 6.4 6.5 6.6 6.6 6.6 6.4 6.3 6.1 6.2
4.9 3.9 3.8 3.6 4.0 3.8 3.8 4.2 4.7 4.8 5.4 5.9 6.2 6.3 6.3 6.3 6.4 6.4 6.3 6.3 6.3 6.5 6.7 6.7 6.4 6.4 5.5 5.7 5.9 6.0 6.0 6.1 6.3 6.4 6.3 6.2 6.2 6.2 6.1 6.0 6.1 6.1 6.3 6.5 6.6
4.9 4.9 5.0 4.6 4.1 3.9 3.8 4.1 4.4 4.5 4.9 5.3 5.5 5.8 5.7 5.9 6.1 6.2 6.2 6.3 6.3 6.2 6.4 6.3 5.9 6.0 6.0 6.0 5.9 5.8 5.7 5.7 5.8 5.9 6.1 6.2 6.4 6.1 6.1 6.1 6.2 6.3 6.1 6.1 6.2
4.9 4.8 4.5 4.7 4.0 3.8 3.9 4.2 4.0 4.3 4.6 5.0 5.1 5.1 5.0 5.2 5.4 5.6 5.6 5.8 5.8 5.8 6.0 6.2 6.0 5.8 5.8 5.8 5.8 5.7 5.7 5.8 5.7 5.8 5.8 6.0 6.1 6.1 6.1 6.3 6.4 6.4 6.4 6.3 6.4
4.9 4.8 4.6 4.7 4.1 3.5 4.0 4.0 3.7 3.9 4.1 4.2 4.4 4.4 4.3 4.4 4.5 4.7 4.9 5.1 5.0 5.1 5.2 5.2 5.4 5.5 5.5 5.7 5.7 5.6 5.5 5.7 5.6 5.5 5.4 5.4 5.2 5.6 5.8 5.9 6.1 6.3 6.5 6.7 6.8
Wind_Speed
20 15 13 13 13 13 12 10 11 11 11 6 5 5 7 8 8 2 3 6 3 6 5 2 4 5 3 1 2 1 6 13 18 20 17 7 7 16 4 5 10 14 9 7 12
23 20 15 12 11 12 11 11 10 11 9 6 4 5 5 6 2 4 7 5 6 1 3 4 2 3 1 2 3 5 8 18 8 11 7 15 14 13 7 8 10 10 3 17 17
23 22 16 11 9 12 11 9 9 9 8 6 3 3 4 2 2 4 2 5 1 7 4 3 2 1 3 2 3 4 14 13 11 11 6 4 4 3 7 12 9 19 14 10 14
30 22 17 12 10 8 11 8 8 9 8 8 3 3 3 2 1 2 4 2 6 9 3 3 3 2 2 6 5 9 10 13 8 10 8 8 4 5 6 10 11 14 20 14 17
29 18 18 14 12 6 8 8 8 9 6 7 2 2 3 1 6 3 1 4 6 4 4 3 2 2 5 3 5 10 10 8 10 13 14 8 8 3 16 15 11 10 19 21 18
35 28 20 15 12 8 9 6 7 7 5 3 2 3 3 2 2 2 2 2 4 3 3 5 6 5 6 8 8 4 14 16 14 10 9 6 7 7 6 14 17 14 22 23 22
30 34 18 14 10 9 7 6 6 8 6 3 5 2 2 8 3 2 2 2 4 4 3 4 4 3 4 7 13 14 6 7 15 13 3 2 8 7 12 15 17 20 20 20 16
27 24 14 14 9 6 3 5 6 6 5 5 6 2 4 3 2 3 4 2 2 3 3 3 4 6 11 7 4 13 7 8 13 12 4 3 5 3 14 17 17 14 18 20 13
30 29 13 16 8 6 2 4 4 5 1 7 2 3 6 6 3 3 4 3 3 2 2 2 3 5 6 4 7 9 5 9 6 16 5 7 0 4 16 16 18 12 10 18 20
32 36 16 18 11 8 5 1 1 1 3 3 2 1 4 2 1 1 1 1 3 1 2 4 3 3 4 4 9 7 8 7 6 12 7 7 4 10 14 16 16 12 13 13 13
29 30 19 19 14 9 5 4 2 2 2 6 4 3 3 1 1 1 2 1 3 3 6 5 4 6 11 11 2 2 9 11 4 11 8 7 1 5 12 11 15 9 8 2 11
26 32 19 17 15 11 3 3 4 2 2 7 3 4 4 2 1 2 1 3 4 8 2 4 8 8 11 10 9 2 10 6 9 11 4 6 2 5 7 12 13 10 6 3 4
22 31 20 18 14 7 3 5 3 1 3 2 3 3 2 4 3 4 4 2 5 7 9 10 4 10 8 9 10 7 12 7 13 10 8 5 6 7 8 10 8 11 7 3 4
19 21 19 17 7 4 3 5 5 1 4 3 2 4 3 3 3 3 4 3 2 4 6 6 5 8 10 7 10 9 7 14 16 6 5 2 1 5 3 5 9 8 4 2 1
16 18 21 14 7 4 3 11 5 4 3 3 2 1 2 2 5 3 3 5 5 5 3 5 5 3 5 7 13 4 9 16 8 9 10 1 2 4 2 1 8 6 1 3 3
17 25 26 5 2 3 11 6 3 6 4 2 1 2 1 3 3 2 3 4 6 0 3 3 2 1 2 1 4 10 7 5 3 0 4 1 2 2 2 1 6 5 4 5 4
17 6 20 8 4 9 6 3 4 4 3 2 2 1 1 3 2 2 3 2 4 4 5 3 3 3 2 7 3 5 4 2 4 4 2 4 1 3 2 2 4 7 7 7 5
14 17 9 4 6 10 3 4 4 2 4 1 1 2 2 4 2 2 1 6 4 4 4 5 5 8 7 3 3 3 2 3 5 4 3 3 4 2 3 6 5 6 6 5 3
14 4 4 1 9 3 4 2 6 5 5 6 3 4 3 1 1 4 5 5 3 5 4 2 5 3 5 4 3 6 4 1 6 2 3 2 2 1 4 9 7 7 5 5 5
3 3 3 7 6 4 4 3 2 3 2 2 4 1 2 5 4 3 5 4 6 5 2 2 4 3 3 2 5 1 0 1 3 4 4 3 2 2 7 7 5 6 6 6 5
7 4 2 5 2 4 2 4 3 2 1 1 3 4 1 1 2 3 4 3 4 6 5 2 3 2 2 4 2 3 2 5 4 2 4 3 2 2 5 4 3 4 4 5 5
4 3 3 2 3 2 2 4 3 2 3 1 4 3 3 1 3 3 2 2 7 2 3 3 3 4 1 4 3 2 3 3 3 3 4 3 1 2 2 1 3 4 5 4 5
3 3 1 1 3 4 3 2 2 3 1 2 2 1 1 2 3 2 1 2 6 4 2 1 3 3 6 3 2 5 4 4 4 2 2 4 2 2 3 4 5 5 4 3 4
4 4 2 1 2 4 4 3 3 2 2 3 3 3 3 4 5 2 2 3 5 3 8 4 4 3 4 2 1 4 4 3 3 3 2 1 0 1 6 6 7 6 6 7 7
3 2 3 6 4 3 1 4 5 3 2 3 3 2 2 2 2 2 1 3 3 7 4 4 4 3 4 3 3 3 4 3 4 2 3 1 2 4 6 6 6 5 5 5 6
3 4 2 2 9 4 1 3 4 2 3 1 5 3 2 3 1 5 3 0 1 5 4 4 1 2 4 5 5 2 2 3 3 2 0 1 2 2 5 4 6 6 6 6 8
0 2 4 6 10 3 5 4 6 5 4 3 5 5 5 2 2 3 4 5 3 2 3 3 3 3 2 4 3 4 2 1 1 2 2 2 2 4 5 7 8 10 9 8 8
Wind_Direction
254 252 262 273 288 292 294 294 299 317 310 280 309 327 318 324 330 4 242 224 205 263 70 19 37 7 15 246 250 270 236 237 227 224 220 245 242 266 252 163 191 191 158 207 123
243 239 240 253 273 289 298 291 289 311 301 278 298 315 329 334 343 261 239 223 254 85 75 59 7 17 315 268 231 216 227 237 225 229 215 245 237 262 247 203 222 188 93 145 152
253 235 237 240 260 284 293 285 292 302 302 286 272 298 319 10 358 256 219 195 127 112 97 106 89 44 217 231 225 203 240 242 260 257 220 199 256 358 263 242 206 186 173 136 118
334 234 234 229 251 261 289 278 292 288 300 317 247 292 352 109 59 252 200 225 74 109 93 98 88 87 243 217 201 252 258 250 276 272 272 242 267 350 254 249 329 216 155 144 158
329 267 225 214 234 238 276 277 284 276 299 314 211 21 108 56 246 255 244 54 101 118 152 148 140 178 244 245 232 240 252 290 260 265 276 285 260 292 282 280 305 270 159 164 181
332 329 217 198 210 220 259 262 286 270 278 290 175 128 119 242 223 177 351 101 141 153 177 157 183 193 264 249 230 235 232 249 270 281 242 292 265 26 320 339 309 248 176 176 182
330 350 208 194 209 232 240 259 270 281 268 265 171 134 148 237 125 283 243 186 163 153 206 210 180 137 279 257 222 244 283 247 235 252 237 160 250 238 345 335 304 279 185 184 182
328 325 239 185 187 228 229 258 279 271 244 228 156 114 244 245 230 279 144 180 150 182 191 276 188 217 226 256 254 204 241 238 223 210 210 143 244 125 326 349 322 303 188 187 173
331 318 262 164 154 211 189 255 251 260 168 141 85 113 272 301 193 240 164 213 163 182 226 205 146 208 213 211 218 186 195 219 155 186 128 182 208 258 309 337 328 319 247 184 177
330 342 196 149 171 170 218 203 226 66 98 83 93 59 270 220 271 110 141 44 224 358 259 203 229 223 187 190 200 200 192 181 169 167 134 185 285 316 313 332 319 300 292 172 162
328 346 143 152 155 168 198 93 75 232 221 195 189 228 252 262 116 193 95 50 194 182 236 187 221 230 202 196 266 53 179 171 170 152 138 196 54 307 305 308 294 288 277 169 154
333 339 168 154 159 164 188 184 230 198 166 226 181 263 249 176 335 221 88 211 208 243 210 229 243 237 207 205 231 167 195 161 119 147 118 159 89 272 290 275 263 285 272 129 163
324 329 163 151 152 151 212 208 282 217 97 246 193 226 228 135 248 214 167 164 233 242 237 245 290 172 166 190 184 226 204 154 135 117 83 107 25 282 246 241 302 262 248 224 162
295 327 149 141 154 106 218 214 228 165 71 275 279 272 121 109 285 186 221 236 251 268 233 237 220 168 163 209 189 177 193 145 146 166 94 25 218 267 264 311 251 282 242 222 213
311 330 159 146 126 164 234 155 170 58 38 259 229 316 94 132 313 237 160 183 244 239 213 68 136 137 161 181 196 195 142 140 163 110 124 96 80 287 310 255 281 264 250 264 231
289 307 161 108 120 262 140 117 50 45 259 312 243 231 290 178 212 245 223 202 262 202 15 86 331 185 289 227 180 135 102 98 103 150 59 111 155 63 81 199 304 360 337 290 264
285 251 157 142 153 159 110 57 53 125 281 240 195 140 62 293 298 276 334 324 18 9 17 158 105 191 55 101 36 86 73 43 28 47 80 317 50 33 339 59 273 305 309 294 255
296 171 134 99 160 137 68 57 97 129 206 263 198 81 63 344 312 7 345 7 33 48 47 27 64 11 348 56 123 82 136 156 143 129 170 248 51 26 327 58 20 17 345 319 261
303 88 104 124 146 80 77 72 207 194 168 166 67 67 345 355 236 21 25 355 350 8 97 59 50 16 16 19 4 313 38 275 106 66 93 350 328 170 44 61 43 33 28 40 71
120 99 115 138 152 70 77 245 209 185 144 230 110 70 24 323 26 34 18 335 339 19 254 68 99 13 18 54 321 292 255 63 13 98 82 37 50 315 345 359 15 37 27 27 34
101 105 94 144 98 59 172 229 238 204 215 130 138 122 193 331 31 27 351 330 357 330 44 39 43 319 11 22 341 353 14 48 108 48 123 102 343 253 294 311 21 39 42 35 35
107 102 125 196 115 171 206 208 183 163 210 68 103 105 133 138 41 70 66 300 335 291 55 334 107 66 173 270 259 3 41 74 96 344 47 89 330 333 285 68 117 42 23 25 13
86 85 48 353 148 186 258 224 147 156 206 101 97 82 150 83 88 59 76 311 340 40 72 6 15 37 351 6 51 51 27 56 70 69 358 99 201 132 34 33 25 12 357 354 350
108 118 66 304 137 175 182 147 106 359 91 81 104 91 94 55 18 112 44 339 341 27 47 84 64 113 157 236 297 56 34 40 97 72 167 53 46 351 14 1 331 341 339 330 320
60 107 170 176 215 201 235 132 128 138 52 22 64 65 117 94 47 73 1 350 3 352 39 79 95 72 46 26 50 55 33 25 76 144 99 230 254 324 340 330 318 322 341 338 332
113 139 60 152 171 154 358 165 132 123 114 174 119 97 44 110 231 194 155 114 14 359 50 16 99 83 31 13 27 94 74 67 77 100 137 246 305 6 321 345 4 358 1 357 349
137 44 100 126 165 172 175 179 178 140 30 82 146 101 67 34 129 86 93 79 85 79 64 56 117 65 330 341 7 28 24 85 98 155 144 112 63 340 350 345 357 344 3 358 348